Home > Weather > Charleston > Past weeks

Flag for USA Past Weather in Charleston, West Virginia, USA — Yesterday and Last 2 Weeks

Now
74 °F

Passing clouds.


Feels Like: 72 °F
Forecast: 74 / 90 °F
Wind: No wind

Location: Yeager Airport

Current Time: Jul 26, 2016 at 6:17:47 AM

Latest Report: Jul 26, 2016 at 4:54 AM


Visibility: 10 mi

Pressure: 29.99 "Hg

Humidity: 91%

Dew Point: 71 °F

Location of CharlestonLocation

Past Weather in Charleston — Graph

°F

Charleston Temperature Yesterday

Maximum temperature yesterday: 93 °F (at 3:54 PM)
Minimum temperature yesterday: 74 °F (at 5:54 AM)
Average temperature yesterday: 83 °F

High & Low Weather Summary for the Past Weeks

 TemperatureHumidityPressure
High96 °F (Jul 24, 4:54 PM)97% (Jul 11, 5:54 AM)30.27 "Hg (Jul 11, 5:54 AM)
Low61 °F (Jul 11, 5:54 AM)34% (Jul 21, 2:54 PM)29.91 "Hg (Jul 14, 3:54 PM)
Average77 °F75%30.06 "Hg
* Reported Jul 11 4:54 AM — Jul 26 4:54 AM, Charleston, Weather by CustomWeather, © 2016

Note: Actual official high and low records may vary slightly from our data, if they occured in-between our weather recording intervals... More about our weather records

Advertising

Charleston Weather History for the Previous 24 Hours

Scroll right to see more
 ConditionsComfort  
Time TempWeatherWind HumidityBarometerVisibility
4:54 AM
Tue, Jul 26
74 °FPassing clouds.No wind91%29.99 "Hg10 mi
3:54 AM75 °FPassing clouds.No wind88%29.98 "Hg10 mi
2:54 AM76 °FPassing clouds.5 mph85%29.98 "Hg10 mi
1:54 AM77 °FPassing clouds.5 mph82%29.98 "Hg10 mi
12:54 AM78 °FPassing clouds.3 mph79%29.97 "Hg10 mi
11:54 PM
Mon, Jul 25
80 °FPassing clouds.7 mph74%29.98 "Hg10 mi
10:54 PM81 °FPassing clouds.8 mph74%29.98 "Hg10 mi
9:54 PM82 °FPartly cloudy.9 mph72%29.97 "Hg10 mi
8:54 PM84 °FBroken clouds.No wind72%29.96 "Hg10 mi
7:54 PM86 °FBroken clouds.6 mph67%29.96 "Hg10 mi
6:54 PM89 °FBroken clouds.5 mph61%29.93 "Hg10 mi
5:54 PM92 °FBroken clouds.5 mph56%29.93 "Hg10 mi
4:54 PM90 °FBroken clouds.6 mph56%29.93 "Hg10 mi
3:54 PM93 °FPartly sunny.7 mph50%29.93 "Hg10 mi
2:54 PM92 °FBroken clouds.9 mph51%29.95 "Hg10 mi
1:54 PM90 °FBroken clouds.6 mph57%29.98 "Hg10 mi
12:54 PM90 °FPartly sunny.10 mph59%29.99 "Hg10 mi
11:54 AM89 °FBroken clouds.7 mph61%29.99 "Hg10 mi
10:54 AM87 °FBroken clouds.3 mph65%30.00 "Hg10 mi
9:54 AM83 °FBroken clouds.6 mph74%30.01 "Hg10 mi
8:54 AM79 °FPartly sunny.3 mph84%30.02 "Hg10 mi
7:54 AM76 °FPassing clouds.No wind91%30.00 "Hg8 mi
6:54 AM74 °FPassing clouds.No wind94%30.00 "Hg8 mi
Weather by CustomWeather, © 2016

See weather overviewHow to use our weather pages